Location: Liège
(50.6326°N, 5.5797°E)
Time: 17:43:26
(UTC+01:00)

ISS - Visible Passes

Search period start: 23 November 2017 00:00
Search period end: 03 December 2017 00:00
Orbit: 402 x 407 km, 51.6° (Epoch: 24 November)

Date Brightness Start Highest point End Pass type
(mag) Time Alt. Az. Time Alt. Az. Time Alt. Az.
27 Nov -1.0 19:07:37 10° S 19:07:51 11° S 19:07:51 11° S visible
28 Nov -1.4 18:16:35 10° SSE 18:17:50 12° SE 18:17:50 12° SE visible
29 Nov -2.1 18:58:32 10° SW 19:00:25 26° S 19:00:25 26° S visible
30 Nov -2.2 18:06:42 10° SSW 18:09:18 22° SE 18:10:15 19° ESE visible
30 Nov -0.8 19:42:10 10° WSW 19:42:54 16° WSW 19:42:54 16° WSW visible
01 Dec -1.5 17:15:18 10° S 17:17:08 14° SE 17:18:58 10° ESE visible
01 Dec -3.3 18:49:51 10° SW 18:52:40 51° S 18:52:40 51° S visible
02 Dec -3.0 17:57:40 10° SW 18:00:45 38° SSE 18:02:23 22° E visible
02 Dec -1.2 19:33:49 10° W 19:35:02 21° W 19:35:02 21° W visible
